Location: Mount Cross
(36.6390°N, 79.4878°W)
Time: 02:37:09
(UTC+00:00)

SR - Pass Details

Date: 04 April 2023
Orbit: 580 x 867 km, 66.7° (Epoch: 08 June)

Event Time Altitude Azimuth Distance (km) Brightness Sun altitude
Rises 06:21:19 0° 259° (WSW) 2,946 - -45.5°
Reaches altitude 10° 06:25:21 10° 294° (WNW) 1,978 - -45.2°
Maximum altitude 06:26:43 11° 312° (NW) 1,882 - -45.0°
Drops below altitude 10° 06:28:04 10° 330° (NNW) 1,948 - -44.9°
Exits shadow 06:31:26 - 3° (N) 2,665 ? -44.7°
Sets 06:31:57 0° 6° (N) 2,819 ? -44.6°
